Location: LDNL
(36.4545°S, 141.6685°E)
Time: 22:13:27
(UTC+11:00)

SR - Visible Passes

Search period start: 19 January 2022 00:00
Search period end: 29 January 2022 00:00
Orbit: 582 x 872 km, 66.7° (Epoch: 19 January)

Date Brightness Start Highest point End Pass type
(mag) Time Alt. Az. Time Alt. Az. Time Alt. Az.
19 Jan ? 00:26:57 17° ESE 00:26:57 17° ESE 00:28:40 10° SE visible
19 Jan ? 02:06:19 46° SW 02:06:19 46° SW 02:11:29 10° SSE visible
20 Jan ? 01:17:22 51° SSE 01:17:22 51° SSE 01:21:44 10° SSE visible
20 Jan ? 02:56:45 14° WSW 02:58:40 16° SW 03:02:12 10° S visible
21 Jan ? 00:28:23 30° ESE 00:28:23 30° ESE 00:31:36 10° SE visible
21 Jan ? 02:07:44 27° WSW 02:08:15 28° SW 02:13:18 10° S visible
21 Jan ? 23:39:18 16° ESE 23:39:18 16° ESE 23:40:52 10° SE visible
22 Jan ? 01:18:39 49° SW 01:18:39 49° SW 01:23:51 10° SSE visible
23 Jan ? 00:29:29 54° SE 00:29:29 54° SE 00:34:03 10° SSE visible
23 Jan ? 02:08:50 14° WSW 02:10:55 17° SW 02:14:40 10° S visible
23 Jan ? 23:40:13 33° ESE 23:40:13 33° ESE 23:43:52 10° SE visible
24 Jan ? 01:19:33 28° WSW 01:20:31 30° SW 01:25:41 10° S visible
24 Jan ? 22:50:47 18° ESE 22:50:47 18° ESE 22:53:02 10° ESE visible
25 Jan ? 00:30:06 54° WSW 00:30:21 55° WSW 00:36:12 10° SSE visible
25 Jan ? 23:40:27 79° ENE 23:40:27 79° ENE 23:46:22 10° SSE visible
26 Jan ? 01:19:45 12° W 01:23:10 18° SW 01:27:07 10° S visible
26 Jan ? 22:50:30 39° ENE 22:50:38 39° ENE 22:56:07 10° SE visible
27 Jan ? 00:29:46 20° W 00:32:47 32° SW 00:38:03 10° S visible
27 Jan ? 22:00:00 19° ENE 22:01:04 20° ENE 22:05:10 10° ESE visible
27 Jan ? 23:39:14 25° NW 23:42:39 59° WSW 23:48:31 10° SSE visible
28 Jan ? 01:24:38 10° SW 01:25:59 11° SW 01:27:20 10° SSW visible
28 Jan ? 22:47:22 12° NNW 22:52:42 74° ENE 22:58:39 10° SSE visible
